MSAT M1                 
1 23846U 96022A   19261.36385861 -.00000086  00000-0  00000+0 0  9995
2 23846   8.9129  43.2083 0004261 118.2362 219.0529  1.00272286 85728
ARIANE 42P+3 R/B        
1 23847U 96022B   19260.38145708 -.00000029  00000-0  18359-3 0  9998
2 23847   6.9745   4.8361 6723865  59.9141 349.7219  2.97200841230895